« Back
NWS Peachtree City, Ga » Text Product » GA Regional Weather Roundup


Printer-friendly Version
Current Version              Previous Versions:   1  2  3  4  5  6  7  8  9  

Regional Weather Roundup

768
ASUS42 KFFC 280910
RWRGA
WEATHER ROUNDUP FOR GEORGIA
NATIONAL WEATHER SERVICE PEACHTREE CITY GA
500 AM EDT TUE JUL 28 2015

NOTE: "FAIR" INDICATES FEW OR NO CLOUDS BELOW 12,000 FEET WITH NO
SIGNIFICANT WEATHER AND/OR OBSTRUCTIONS TO VISIBILITY.

* = USE WITH CAUTION. THE STATIONS MARKED WITH AN ASTERISK MAY NOT
REPORT WEATHER SUCH AS PRECIPITATION, FOG, OR THUNDER AND ARE NOT
QUALITY CONTROLLED BY NWS.

THE REMARK "TC" DENOTES TEMPERATURE READING IN DEGREES CELSIUS.

GAZ001>058-281000-
NORTH GEORGIA

CITY           SKY/WX    TMP DP  RH WIND       PRES   REMARKS
ATLANTA        PTCLDY    78  71  79 CALM      29.98S
ATHENS         CLEAR     74  71  91 CALM      29.97S
CHAMBLEE       CLEAR     73  73 100 CALM      29.98F FOG
PEACHTREE CITY CLEAR     73  71  93 CALM      29.98S FOG
ROME           PTCLDY    73  71  93 CALM      29.96S
WEST ATLANTA   CLEAR     74  72  93 NE5       29.98S
GAINESVILLE    CLEAR     74  71  91 N5        30.02F
CARTERSVILLE   PTCLDY    72  70  93 CALM      29.98S


CITY           SKY/WX    TMP DP  RH WIND       PRES   REMARKS
DALTON*        PTCLDY    73  73 100 CALM      29.98R
MARIETTA       CLEAR     75  73  94 CALM      29.99S
BLAIRSVILLE*   HAZE      69  62  77 CALM      30.06R VSB<1/4
$$

GAZ059>098-102>109-281000-
CENTRAL GEORGIA

CITY           SKY/WX    TMP DP  RH WIND       PRES   REMARKS
AUGUSTA-BUSH   CLEAR     73  72  96 CALM      29.96S
AUGUSTA-DANIEL CLEAR     79  72  79 SE6       29.97S
COLUMBUS       CLEAR     78  72  81 CALM      29.93F
MACON          CLEAR     76  72  87 CALM      29.95S
ROBINS AFB     CLEAR     75  72  92 SE2       29.94F


CITY           SKY/WX    TMP DP  RH WIND       PRES   REMARKS
LAGRANGE*      CLEAR     78  78 100 CALM      29.96S
SYLVANIA*      CLEAR     75  75 100 CALM      29.96S
MILLEDGEVILLE* CLEAR     73  70  88 CALM      29.95S
$$

GAZ099>101-110>166-281000-
SOUTH GEORGIA

CITY           SKY/WX    TMP DP  RH WIND       PRES   REMARKS
SAVANNAH       CLEAR     76  74  93 CALM      29.94S
VALDOSTA       CLEAR     74  74 100 CALM      29.92F FOG
ALMA           FOG       75  75 100 CALM      29.93S VSB 1/2
ST SIMONS      CLEAR     78  76  93 N3        29.91F
FT STEWART     PTCLDY    74  72  94 CALM      29.91F
ALBANY         PTCLDY    76  73  91 CALM      29.95S
HUNTER AFB     CLEAR     75  75 100 N1        29.91S
MOODY AFB      CLEAR     75  74  95 N3        29.91F
BRUNSWICK      PTCLDY    72  72 100 CALM      29.93S


CITY           SKY/WX    TMP DP  RH WIND       PRES   REMARKS
BAINBRIDGE*    CLEAR     79  77  94 CALM      29.93S
MOULTRIE*      PTCLDY    73  72  94 CALM      29.94S
VIDALIA*       FOG       75  73  94 CALM      29.95S VSB<1/4
WAYCROSS*      FOG       78  78 100 CALM      29.93S VSB 1/4
DOUGLAS*       PTCLDY    77  73  88 CALM      29.95S FOG
$$



USA.gov is the U.S. government's official web portal to all federal, state and local government web resources and services.